START_TIME,STEP,MOV.,H8,t_acc.,H43,t_acc.,M25,t_acc.,H9,t_acc.
1979-03-07 21:00:27.320 ,5,0,0.,12.0,0.,12.0,0.,12.0,0.,12.0
1979-03-07 21:00:39.320 ,5,0,1.,12.0,0.,12.0,0.,12.0,0.,12.0
1979-03-07 21:00:51.320 ,4,0,1.,12.0,0.,12.0,0.,12.0,0.,12.0
1979-03-07 21:01:03.320 ,4,0,0.,12.0,0.,12.0,0.,12.0,0.,12.0
1979-03-07 21:01:15.320 ,3,0,0.,12.0,0.,12.0,0.,12.0,0.,12.0
1979-03-07 21:01:27.320 ,3,0,0.,12.0,0.,12.0,0.,12.0,0.,12.0
1979-03-07 21:01:39.320 ,2,0,0.,12.0,0.,12.0,0.,12.0,0.,12.0
1979-03-07 21:01:51.320 ,2,0,0.,12.0,0.,12.0,0.,12.0,0.,12.0
1979-03-07 21:02:03.320 ,1,0,0.,12.0,0.,12.0,0.,12.0,0.,12.0
1979-03-07 21:02:15.320 ,1,0,0.,12.0,0.,12.0,0.,12.0,0.,12.0
1979-03-07 21:02:27.320 ,0,0,0.,12.0,0.,12.0,0.,12.0,0.,12.0
1979-03-07 21:02:39.320 ,0,0,0.,12.0,0.,12.0,0.,12.0,0.,12.0
1979-03-07 21:02:51.320 ,0,0,0.,12.0,0.,12.0,0.,12.0,0.,12.0
1979-03-07 21:03:03.320 ,0,0,0.,12.0,0.,12.0,0.,12.0,0.,12.0
1979-03-07 21:03:15.320 ,1,0,0.,12.0,0.,12.0,0.,12.0,0.,12.0
1979-03-07 21:03:27.320 ,1,0,0.,12.0,0.,12.0,0.,12.0,0.,12.0
1979-03-07 21:03:39.320 ,2,0,0.,12.0,0.,12.0,0.,12.0,0.,12.0
1979-03-07 21:03:51.320 ,2,0,0.,12.0,0.,12.0,0.,12.0,0.,12.0
1979-03-07 21:04:03.320 ,3,0,0.,12.0,0.,12.0,0.,12.0,0.,12.0
1979-03-07 21:04:15.320 ,3,0,0.,12.0,0.,12.0,0.,12.0,0.,12.0
1979-03-07 21:04:27.320 ,4,0,0.,12.0,0.,12.0,0.,12.0,0.,12.0
1979-03-07 21:04:39.320 ,4,0,0.,12.0,0.,12.0,0.,12.0,0.,12.0
1979-03-07 21:04:51.320 ,5,0,0.,12.0,0.,12.0,0.,12.0,0.,12.0
1979-03-07 21:05:03.320 ,5,0,0.,12.0,0.,12.0,0.,12.0,0.,12.0
1979-03-07 21:05:15.320 ,6,0,0.,12.0,0.,12.0,0.,12.0,0.,12.0
1979-03-07 21:05:27.320 ,6,0,0.,12.0,0.,12.0,0.,12.0,0.,12.0
1979-03-07 21:05:39.320 ,7,0,0.,12.0,0.,12.0,0.,12.0,0.,12.0
1979-03-07 21:05:51.320 ,7,0,0.,12.0,0.,12.0,0.,12.0,0.,12.0
1979-03-07 21:06:03.320 ,7,0,0.,12.0,0.,12.0,0.,12.0,0.,12.0
1979-03-07 21:06:15.320 ,7,0,0.,12.0,0.,12.0,0.,12.0,0.,12.0
1979-03-07 21:06:27.320 ,6,0,0.,12.0,0.,12.0,0.,12.0,0.,12.0
1979-03-07 21:06:39.320 ,6,0,1.,12.0,0.,12.0,0.,12.0,0.,12.0
1979-03-07 21:06:51.320 ,5,0,0.,12.0,0.,12.0,0.,12.0,0.,12.0
1979-03-07 21:07:03.320 ,5,0,0.,12.0,0.,12.0,0.,12.0,0.,12.0
1979-03-07 21:07:15.320 ,4,0,2.,12.0,0.,12.0,0.,12.0,0.,12.0
1979-03-07 21:07:27.320 ,4,0,0.,12.0,0.,12.0,0.,12.0,0.,12.0
1979-03-07 21:07:39.320 ,3,0,1.,12.0,0.,12.0,0.,12.0,0.,12.0
1979-03-07 21:07:51.320 ,3,0,0.,12.0,0.,12.0,0.,12.0,0.,12.0
1979-03-07 21:08:03.320 ,2,0,0.,12.0,0.,12.0,0.,12.0,0.,12.0
1979-03-07 21:08:15.320 ,2,0,0.,12.0,0.,12.0,0.,12.0,0.,12.0
1979-03-07 21:08:27.320 ,1,0,1.,12.0,0.,12.0,0.,12.0,0.,12.0
1979-03-07 21:08:39.320 ,1,0,0.,12.0,0.,12.0,0.,12.0,0.,12.0
1979-03-07 21:08:51.320 ,0,0,0.,12.0,0.,12.0,0.,12.0,0.,12.0
1979-03-07 21:09:03.320 ,0,0,0.,12.0,0.,12.0,0.,12.0,0.,12.0
1979-03-07 21:09:15.320 ,0,0,0.,12.0,0.,12.0,0.,12.0,0.,12.0
1979-03-07 21:09:27.320 ,0,0,0.,12.0,0.,12.0,0.,12.0,0.,12.0
1979-03-07 21:09:39.320 ,1,0,0.,12.0,0.,12.0,0.,12.0,0.,12.0
1979-03-07 21:09:51.320 ,1,0,0.,12.0,0.,12.0,0.,12.0,0.,12.0
1979-03-07 21:10:03.320 ,2,0,0.,12.0,0.,12.0,0.,12.0,0.,12.0
1979-03-07 21:10:15.320 ,2,0,0.,12.0,0.,12.0,0.,12.0,0.,12.0
1979-03-07 21:10:27.320 ,3,0,0.,12.0,0.,12.0,0.,12.0,0.,12.0
1979-03-07 21:10:39.320 ,3,0,0.,12.0,0.,12.0,0.,12.0,0.,12.0
1979-03-07 21:10:51.320 ,4,0,0.,12.0,0.,12.0,0.,12.0,0.,12.0
1979-03-07 21:11:03.320 ,4,0,0.,12.0,0.,12.0,0.,12.0,0.,12.0
1979-03-07 21:11:15.320 ,5,0,0.,12.0,0.,12.0,0.,12.0,0.,12.0
1979-03-07 21:11:27.320 ,5,0,0.,12.0,0.,12.0,0.,12.0,0.,12.0
1979-03-07 21:11:39.320 ,6,0,0.,12.0,0.,12.0,0.,12.0,0.,12.0
1979-03-07 21:11:51.320 ,6,0,0.,12.0,0.,12.0,0.,12.0,0.,12.0
1979-03-07 21:12:03.330 ,7,0,0.,12.0,0.,12.0,0.,12.0,0.,12.0
1979-03-07 21:12:15.330 ,7,0,0.,12.0,0.,12.0,0.,12.0,0.,12.0
1979-03-07 21:12:27.330 ,7,0,0.,12.0,0.,12.0,0.,12.0,0.,12.0
1979-03-07 21:12:39.330 ,7,0,0.,12.0,0.,12.0,0.,12.0,0.,12.0
1979-03-07 21:12:51.330 ,6,0,0.,12.0,0.,12.0,0.,12.0,0.,12.0
1979-03-07 21:13:03.330 ,6,0,0.,12.0,0.,12.0,0.,12.0,0.,12.0
1979-03-07 21:13:15.330 ,5,0,0.,12.0,0.,12.0,0.,12.0,0.,12.0
1979-03-07 21:13:27.330 ,5,0,0.,12.0,0.,12.0,0.,12.0,0.,12.0
1979-03-07 21:13:39.330 ,4,0,0.,12.0,0.,12.0,0.,12.0,0.,12.0
1979-03-07 21:13:51.330 ,4,0,0.,12.0,0.,12.0,0.,12.0,0.,12.0
1979-03-07 21:14:03.330 ,3,0,0.,12.0,0.,12.0,0.,12.0,0.,12.0
1979-03-07 21:14:15.330 ,3,0,0.,12.0,0.,12.0,0.,12.0,0.,12.0
1979-03-07 21:14:27.330 ,2,0,0.,12.0,0.,12.0,0.,12.0,0.,12.0
1979-03-07 21:14:39.330 ,2,0,0.,12.0,0.,12.0,0.,12.0,0.,12.0
1979-03-07 21:14:51.330 ,1,0,0.,12.0,0.,12.0,0.,12.0,0.,12.0
1979-03-07 21:15:03.330 ,1,0,0.,12.0,0.,12.0,0.,12.0,0.,12.0
1979-03-07 21:15:15.330 ,0,0,0.,12.0,0.,12.0,0.,12.0,0.,12.0
1979-03-07 21:15:27.330 ,0,0,0.,12.0,0.,12.0,0.,12.0,0.,12.0
1979-03-07 21:15:39.330 ,0,0,0.,12.0,0.,12.0,0.,12.0,0.,12.0
1979-03-07 21:15:51.330 ,0,0,0.,12.0,0.,12.0,0.,12.0,0.,12.0
1979-03-07 21:16:03.330 ,1,0,0.,12.0,0.,12.0,0.,12.0,0.,12.0
1979-03-07 21:16:15.330 ,1,0,0.,12.0,0.,12.0,0.,12.0,0.,12.0
1979-03-07 21:16:27.330 ,2,0,0.,12.0,0.,12.0,0.,12.0,0.,12.0
1979-03-07 21:16:39.330 ,2,0,0.,12.0,0.,12.0,0.,12.0,0.,12.0
1979-03-07 21:16:51.330 ,3,0,0.,12.0,0.,12.0,0.,12.0,0.,12.0
1979-03-07 21:17:03.330 ,3,0,0.,12.0,0.,12.0,0.,12.0,0.,12.0
1979-03-07 21:17:15.320 ,4,0,0.,12.0,0.,12.0,0.,12.0,0.,12.0
1979-03-07 21:17:27.320 ,4,0,0.,12.0,0.,12.0,0.,12.0,0.,12.0
1979-03-07 21:17:39.320 ,5,0,0.,12.0,0.,12.0,0.,12.0,0.,12.0
1979-03-07 21:17:51.320 ,5,0,1.,12.0,0.,12.0,0.,12.0,0.,12.0
1979-03-07 21:18:03.320 ,6,0,2.,12.0,0.,12.0,0.,12.0,0.,12.0
1979-03-07 21:18:15.320 ,6,0,0.,12.0,0.,12.0,0.,12.0,0.,12.0
1979-03-07 21:18:27.320 ,7,0,0.,12.0,0.,12.0,0.,12.0,0.,12.0
1979-03-07 21:18:39.320 ,7,0,0.,12.0,0.,12.0,0.,12.0,0.,12.0
1979-03-07 21:18:51.320 ,7,0,0.,12.0,0.,12.0,0.,12.0,0.,12.0
1979-03-07 21:19:03.320 ,7,0,0.,12.0,0.,12.0,0.,12.0,0.,12.0
1979-03-07 21:19:15.320 ,6,0,0.,12.0,0.,12.0,0.,12.0,0.,12.0
1979-03-07 21:19:27.320 ,6,0,0.,12.0,0.,12.0,0.,12.0,0.,12.0
1979-03-07 21:19:39.320 ,5,0,1.,12.0,0.,12.0,0.,12.0,0.,12.0
1979-03-07 21:19:51.320 ,5,0,1.,12.0,0.,12.0,0.,12.0,0.,12.0
1979-03-07 21:20:03.320 ,4,0,1.,12.0,0.,12.0,0.,12.0,0.,12.0
1979-03-07 21:20:15.320 ,4,0,0.,12.0,0.,12.0,0.,12.0,0.,12.0
1979-03-07 21:20:27.320 ,3,0,0.,12.0,0.,12.0,0.,12.0,0.,12.0
1979-03-07 21:20:39.320 ,3,0,0.,12.0,0.,12.0,0.,12.0,0.,12.0
1979-03-07 21:20:51.330 ,2,0,0.,12.0,0.,12.0,0.,12.0,0.,12.0
1979-03-07 21:21:03.330 ,2,0,0.,12.0,0.,12.0,0.,12.0,0.,12.0
1979-03-07 21:21:15.330 ,1,0,0.,12.0,0.,12.0,0.,12.0,0.,12.0
1979-03-07 21:21:27.330 ,1,0,0.,12.0,0.,12.0,0.,12.0,0.,12.0
1979-03-07 21:21:39.330 ,0,0,1.,12.0,0.,12.0,0.,12.0,0.,12.0
1979-03-07 21:21:51.330 ,0,0,0.,12.0,0.,12.0,0.,12.0,0.,12.0
1979-03-07 21:22:03.330 ,0,0,0.,12.0,0.,12.0,0.,12.0,0.,12.0
1979-03-07 21:22:15.330 ,0,0,0.,12.0,0.,12.0,0.,12.0,0.,12.0
1979-03-07 21:22:27.330 ,1,0,0.,12.0,0.,12.0,0.,12.0,0.,12.0
1979-03-07 21:22:39.330 ,1,0,0.,12.0,0.,12.0,0.,12.0,1.,12.0
1979-03-07 21:22:51.330 ,2,0,0.,12.0,0.,12.0,0.,12.0,0.,12.0
1979-03-07 21:23:03.330 ,2,0,0.,12.0,0.,12.0,0.,12.0,0.,12.0
1979-03-07 21:23:15.330 ,3,0,0.,12.0,0.,12.0,0.,12.0,0.,12.0
1979-03-07 21:23:27.330 ,3,0,0.,12.0,0.,12.0,0.,12.0,0.,12.0
1979-03-07 21:23:39.330 ,4,0,0.,12.0,0.,12.0,0.,12.0,0.,12.0
1979-03-07 21:23:51.330 ,4,0,0.,12.0,0.,12.0,0.,12.0,0.,12.0
1979-03-07 21:24:03.330 ,5,0,0.,12.0,0.,12.0,0.,12.0,0.,12.0
1979-03-07 21:24:15.330 ,5,0,0.,12.0,0.,12.0,0.,12.0,0.,12.0
1979-03-07 21:24:27.330 ,6,0,1.,12.0,0.,12.0,0.,12.0,0.,12.0
1979-03-07 21:24:39.330 ,6,0,0.,12.0,0.,12.0,0.,12.0,0.,12.0
1979-03-07 21:24:51.330 ,7,0,0.,12.0,0.,12.0,0.,12.0,0.,12.0
1979-03-07 21:25:03.330 ,7,0,0.,12.0,0.,12.0,0.,12.0,0.,12.0
1979-03-07 21:25:15.330 ,7,0,0.,12.0,0.,12.0,0.,12.0,0.,12.0
1979-03-07 21:25:27.330 ,7,0,0.,12.0,0.,12.0,0.,12.0,0.,12.0
1979-03-07 21:25:39.330 ,6,0,0.,12.0,0.,12.0,0.,12.0,0.,12.0
1979-03-07 21:25:51.330 ,6,0,0.,12.0,0.,12.0,0.,12.0,0.,12.0
1979-03-07 21:26:03.330 ,5,0,0.,12.0,0.,12.0,0.,12.0,0.,12.0
1979-03-07 21:26:15.330 ,5,0,0.,12.0,0.,12.0,0.,12.0,0.,12.0
1979-03-07 21:26:27.330 ,4,0,2.,12.0,0.,12.0,0.,12.0,0.,12.0
1979-03-07 21:26:39.330 ,4,0,0.,12.0,0.,12.0,0.,12.0,0.,12.0
1979-03-07 21:26:51.330 ,3,0,0.,12.0,0.,12.0,0.,12.0,0.,12.0
1979-03-07 21:27:03.330 ,3,0,0.,12.0,0.,12.0,0.,12.0,0.,12.0
1979-03-07 21:27:15.330 ,2,0,1.,12.0,0.,12.0,0.,12.0,0.,12.0
1979-03-07 21:27:27.330 ,2,0,0.,12.0,0.,12.0,0.,12.0,0.,12.0
1979-03-07 21:27:39.330 ,1,0,0.,12.0,0.,12.0,0.,12.0,0.,12.0
1979-03-07 21:27:51.330 ,1,0,0.,12.0,0.,12.0,0.,12.0,0.,12.0
1979-03-07 21:28:03.330 ,0,0,0.,12.0,0.,12.0,0.,12.0,0.,12.0
1979-03-07 21:28:15.330 ,0,0,0.,12.0,0.,12.0,0.,12.0,0.,12.0
1979-03-07 21:28:27.330 ,0,0,0.,12.0,0.,12.0,0.,12.0,0.,12.0
1979-03-07 21:28:39.330 ,0,0,0.,12.0,0.,12.0,0.,12.0,0.,12.0
1979-03-07 21:28:51.330 ,1,0,0.,12.0,0.,12.0,0.,12.0,0.,12.0
1979-03-07 21:29:03.330 ,1,0,0.,12.0,0.,12.0,0.,12.0,0.,12.0
1979-03-07 21:29:15.330 ,2,0,0.,12.0,0.,12.0,0.,12.0,0.,12.0
1979-03-07 21:29:27.330 ,2,0,1.,12.0,0.,12.0,0.,12.0,0.,12.0
1979-03-07 21:29:39.330 ,3,0,1.,12.0,0.,12.0,0.,12.0,0.,12.0
1979-03-07 21:29:51.330 ,3,0,0.,12.0,0.,12.0,0.,12.0,0.,12.0
1979-03-07 21:30:03.330 ,4,0,1.,12.0,0.,12.0,0.,12.0,0.,12.0
1979-03-07 21:30:15.330 ,4,0,0.,12.0,0.,12.0,0.,12.0,0.,12.0
1979-03-07 21:30:27.330 ,5,0,0.,12.0,0.,12.0,0.,12.0,0.,12.0
1979-03-07 21:30:39.330 ,5,0,0.,12.0,0.,12.0,0.,12.0,0.,12.0
1979-03-07 21:30:51.330 ,6,0,0.,12.0,0.,12.0,0.,12.0,0.,12.0
1979-03-07 21:31:03.330 ,6,0,0.,12.0,0.,12.0,0.,12.0,0.,12.0
1979-03-07 21:31:15.330 ,7,0,0.,12.0,0.,12.0,0.,12.0,0.,12.0
1979-03-07 21:31:27.330 ,7,0,0.,12.0,0.,12.0,0.,12.0,0.,12.0
1979-03-07 21:31:39.330 ,7,0,0.,12.0,0.,12.0,0.,12.0,0.,12.0
1979-03-07 21:31:51.330 ,7,0,0.,12.0,0.,12.0,0.,12.0,0.,12.0
1979-03-07 21:32:03.330 ,6,0,0.,12.0,0.,12.0,0.,12.0,0.,12.0
1979-03-07 21:32:15.330 ,6,0,0.,12.0,0.,12.0,0.,12.0,0.,12.0
1979-03-07 21:32:27.330 ,5,0,1.,12.0,0.,12.0,0.,12.0,0.,12.0
1979-03-07 21:32:39.330 ,5,0,0.,12.0,0.,12.0,0.,12.0,0.,12.0
1979-03-07 21:32:51.330 ,4,0,1.,12.0,0.,12.0,0.,12.0,0.,12.0
1979-03-07 21:33:03.330 ,4,0,0.,12.0,0.,12.0,0.,12.0,0.,12.0
1979-03-07 21:33:15.330 ,3,0,1.,12.0,0.,12.0,0.,12.0,0.,12.0
1979-03-07 21:33:27.330 ,3,0,0.,12.0,0.,12.0,0.,12.0,0.,12.0
1979-03-07 21:33:39.330 ,2,0,0.,12.0,0.,12.0,0.,12.0,0.,12.0
1979-03-07 21:33:51.330 ,2,0,0.,12.0,0.,12.0,0.,12.0,0.,12.0
1979-03-07 21:34:03.330 ,1,0,1.,12.0,0.,12.0,0.,12.0,0.,12.0
1979-03-07 21:34:15.330 ,1,0,0.,12.0,0.,12.0,0.,12.0,0.,12.0
1979-03-07 21:34:27.330 ,0,0,0.,12.0,0.,12.0,0.,12.0,0.,12.0
1979-03-07 21:34:39.330 ,0,0,0.,12.0,0.,12.0,0.,12.0,0.,12.0
1979-03-07 21:34:51.330 ,0,0,0.,12.0,0.,12.0,0.,12.0,0.,12.0
1979-03-07 21:35:03.330 ,0,0,0.,12.0,0.,12.0,0.,12.0,0.,12.0
1979-03-07 21:35:15.330 ,1,0,0.,12.0,0.,12.0,0.,12.0,0.,12.0
1979-03-07 21:35:27.330 ,1,0,0.,12.0,0.,12.0,0.,12.0,0.,12.0
1979-03-07 21:35:39.330 ,2,0,0.,12.0,0.,12.0,0.,12.0,0.,12.0
1979-03-07 21:35:51.330 ,2,0,1.,12.0,0.,12.0,0.,12.0,0.,12.0
1979-03-07 21:36:03.330 ,3,0,1.,12.0,0.,12.0,0.,12.0,0.,12.0
1979-03-07 21:36:15.330 ,3,0,2.,12.0,0.,12.0,0.,12.0,0.,12.0
1979-03-07 21:36:27.330 ,4,0,1.,12.0,0.,12.0,0.,12.0,0.,12.0
1979-03-07 21:36:39.330 ,4,0,0.,12.0,0.,12.0,0.,12.0,0.,12.0
1979-03-07 21:36:51.330 ,5,0,1.,12.0,0.,12.0,0.,12.0,0.,12.0
1979-03-07 21:37:03.330 ,5,0,0.,12.0,0.,12.0,0.,12.0,0.,12.0
1979-03-07 21:37:15.330 ,6,0,0.,12.0,0.,12.0,0.,12.0,0.,12.0
1979-03-07 21:37:27.330 ,6,0,0.,12.0,0.,12.0,0.,12.0,0.,12.0
1979-03-07 21:37:39.330 ,7,0,0.,12.0,0.,12.0,0.,12.0,0.,12.0
1979-03-07 21:37:51.330 ,7,0,0.,12.0,0.,12.0,0.,12.0,0.,12.0
1979-03-07 21:38:03.330 ,7,0,0.,12.0,0.,12.0,0.,12.0,0.,12.0
1979-03-07 21:38:15.330 ,7,0,0.,12.0,0.,12.0,0.,12.0,0.,12.0
1979-03-07 21:38:27.330 ,6,0,0.,12.0,0.,12.0,0.,12.0,0.,12.0
1979-03-07 21:38:39.330 ,6,0,0.,12.0,0.,12.0,0.,12.0,0.,12.0
1979-03-07 21:38:51.330 ,5,0,0.,12.0,0.,12.0,0.,12.0,0.,12.0
1979-03-07 21:39:03.330 ,5,0,0.,12.0,0.,12.0,0.,12.0,0.,12.0
1979-03-07 21:39:15.330 ,4,0,0.,12.0,0.,12.0,0.,12.0,0.,12.0
1979-03-07 21:39:27.330 ,4,0,1.,12.0,0.,12.0,0.,12.0,0.,12.0
1979-03-07 21:39:39.330 ,3,0,2.,12.0,0.,12.0,0.,12.0,0.,12.0
1979-03-07 21:39:51.330 ,3,0,0.,12.0,0.,12.0,0.,12.0,0.,12.0
1979-03-07 21:40:03.330 ,2,0,1.,12.0,0.,12.0,0.,12.0,0.,12.0
1979-03-07 21:40:15.330 ,2,0,0.,12.0,0.,12.0,0.,12.0,0.,12.0
1979-03-07 21:40:27.330 ,1,0,0.,12.0,0.,12.0,0.,12.0,0.,12.0
1979-03-07 21:40:39.330 ,1,0,0.,12.0,0.,12.0,0.,12.0,0.,12.0
1979-03-07 21:40:51.330 ,0,0,0.,12.0,0.,12.0,0.,12.0,0.,12.0
1979-03-07 21:41:03.330 ,0,0,0.,12.0,0.,12.0,0.,12.0,0.,12.0
1979-03-07 21:41:15.330 ,0,0,0.,12.0,0.,12.0,0.,12.0,0.,12.0
1979-03-07 21:41:27.330 ,0,0,0.,12.0,0.,12.0,0.,12.0,0.,12.0
1979-03-07 21:41:39.330 ,1,0,0.,12.0,0.,12.0,0.,12.0,0.,12.0
1979-03-07 21:41:51.330 ,1,0,0.,12.0,0.,12.0,0.,12.0,0.,12.0
1979-03-07 21:42:03.330 ,2,0,0.,12.0,0.,12.0,0.,12.0,0.,12.0
1979-03-07 21:42:15.330 ,2,0,0.,12.0,0.,12.0,0.,12.0,0.,12.0
1979-03-07 21:42:27.330 ,3,0,2.,12.0,0.,12.0,0.,12.0,0.,12.0
1979-03-07 21:42:39.330 ,3,0,0.,12.0,0.,12.0,0.,12.0,0.,12.0
1979-03-07 21:42:51.330 ,4,0,0.,12.0,0.,12.0,0.,12.0,0.,12.0
1979-03-07 21:43:03.330 ,4,0,0.,12.0,0.,12.0,0.,12.0,0.,12.0
1979-03-07 21:43:15.330 ,5,0,0.,12.0,0.,12.0,0.,12.0,0.,12.0
1979-03-07 21:43:27.330 ,5,0,0.,12.0,0.,12.0,0.,12.0,0.,12.0
1979-03-07 21:43:39.330 ,6,0,2.,12.0,0.,12.0,0.,12.0,0.,12.0
1979-03-07 21:43:51.330 ,6,0,0.,12.0,0.,12.0,0.,12.0,0.,12.0
1979-03-07 21:44:03.330 ,7,0,0.,12.0,0.,12.0,0.,12.0,0.,12.0
1979-03-07 21:44:15.330 ,7,0,0.,12.0,0.,12.0,0.,12.0,0.,12.0
1979-03-07 21:44:27.330 ,7,0,0.,12.0,0.,12.0,0.,12.0,0.,12.0
1979-03-07 21:44:39.330 ,7,0,0.,12.0,0.,12.0,0.,12.0,0.,12.0
1979-03-07 21:44:51.330 ,6,0,0.,12.0,0.,12.0,0.,12.0,0.,12.0
1979-03-07 21:45:03.330 ,6,0,0.,12.0,0.,12.0,0.,12.0,0.,12.0
1979-03-07 21:45:15.330 ,5,0,0.,12.0,0.,12.0,0.,12.0,0.,12.0
1979-03-07 21:45:27.330 ,5,0,0.,12.0,0.,12.0,0.,12.0,0.,12.0
1979-03-07 21:45:39.330 ,4,0,0.,12.0,0.,12.0,0.,12.0,0.,12.0
1979-03-07 21:45:51.330 ,4,0,0.,12.0,0.,12.0,0.,12.0,0.,12.0
1979-03-07 21:46:03.330 ,3,0,0.,12.0,0.,12.0,0.,12.0,0.,12.0
1979-03-07 21:46:15.330 ,3,0,0.,12.0,0.,12.0,0.,12.0,0.,12.0
1979-03-07 21:46:27.330 ,2,0,0.,12.0,0.,12.0,0.,12.0,0.,12.0
1979-03-07 21:46:39.330 ,2,0,1.,12.0,0.,12.0,0.,12.0,0.,12.0
1979-03-07 21:46:51.330 ,1,0,0.,12.0,0.,12.0,0.,12.0,0.,12.0
1979-03-07 21:47:03.330 ,1,0,0.,12.0,0.,12.0,0.,12.0,0.,12.0
1979-03-07 21:47:15.330 ,0,0,0.,12.0,0.,12.0,0.,12.0,0.,12.0
1979-03-07 21:47:27.330 ,0,0,0.,12.0,0.,12.0,0.,12.0,0.,12.0
1979-03-07 21:47:39.330 ,0,0,0.,12.0,0.,12.0,0.,12.0,0.,12.0
1979-03-07 21:47:51.330 ,0,0,0.,12.0,0.,12.0,0.,12.0,0.,12.0
1979-03-07 21:48:03.330 ,1,0,0.,12.0,0.,12.0,0.,12.0,0.,12.0
1979-03-07 21:48:15.330 ,1,0,0.,12.0,0.,12.0,0.,12.0,0.,12.0
1979-03-07 21:48:27.330 ,2,0,0.,12.0,0.,12.0,0.,12.0,0.,12.0
1979-03-07 21:48:39.330 ,2,0,0.,12.0,0.,12.0,0.,12.0,0.,12.0
1979-03-07 21:48:51.330 ,3,0,0.,12.0,0.,12.0,0.,12.0,0.,12.0
1979-03-07 21:49:03.330 ,3,0,1.,12.0,0.,12.0,0.,12.0,0.,12.0
1979-03-07 21:49:15.330 ,4,0,0.,12.0,0.,12.0,0.,12.0,0.,12.0
1979-03-07 21:49:27.330 ,4,0,0.,12.0,0.,12.0,0.,12.0,0.,12.0
1979-03-07 21:49:39.330 ,5,0,0.,12.0,0.,12.0,0.,12.0,0.,12.0
1979-03-07 21:49:51.330 ,5,0,0.,12.0,0.,12.0,0.,12.0,0.,12.0
1979-03-07 21:50:03.330 ,6,0,1.,12.0,0.,12.0,0.,12.0,0.,12.0
1979-03-07 21:50:15.330 ,6,0,0.,12.0,0.,12.0,0.,12.0,0.,12.0
1979-03-07 21:50:27.330 ,7,0,0.,12.0,0.,12.0,0.,12.0,0.,12.0
1979-03-07 21:50:39.330 ,7,0,0.,12.0,0.,12.0,0.,12.0,0.,12.0
1979-03-07 21:50:51.330 ,7,0,0.,12.0,0.,12.0,0.,12.0,0.,12.0
1979-03-07 21:51:03.330 ,7,0,0.,12.0,0.,12.0,0.,12.0,0.,12.0
1979-03-07 21:51:15.330 ,6,0,0.,12.0,0.,12.0,0.,12.0,0.,12.0
1979-03-07 21:51:27.330 ,6,0,0.,12.0,0.,12.0,0.,12.0,0.,12.0
1979-03-07 21:51:39.330 ,5,0,0.,12.0,0.,12.0,0.,12.0,0.,12.0
1979-03-07 21:51:51.330 ,5,0,2.,12.0,0.,12.0,0.,12.0,0.,12.0
1979-03-07 21:52:03.330 ,4,0,0.,12.0,0.,12.0,0.,12.0,0.,12.0
1979-03-07 21:52:15.330 ,4,0,1.,12.0,0.,12.0,0.,12.0,0.,12.0
1979-03-07 21:52:27.330 ,3,0,1.,12.0,0.,12.0,0.,12.0,0.,12.0
1979-03-07 21:52:39.330 ,3,0,0.,12.0,0.,12.0,0.,12.0,0.,12.0
1979-03-07 21:52:51.330 ,2,0,1.,12.0,0.,12.0,0.,12.0,0.,12.0
1979-03-07 21:53:03.330 ,2,0,0.,12.0,0.,12.0,0.,12.0,0.,12.0
1979-03-07 21:53:15.330 ,1,0,0.,12.0,0.,12.0,0.,12.0,0.,12.0
1979-03-07 21:53:27.330 ,1,0,0.,12.0,0.,12.0,0.,12.0,0.,12.0
1979-03-07 21:53:39.330 ,0,0,0.,12.0,0.,12.0,0.,12.0,0.,12.0
1979-03-07 21:53:51.330 ,0,0,0.,12.0,0.,12.0,0.,12.0,0.,12.0
1979-03-07 21:54:03.330 ,0,0,0.,12.0,0.,12.0,0.,12.0,0.,12.0
1979-03-07 21:54:15.330 ,0,0,0.,12.0,0.,12.0,0.,12.0,0.,12.0
1979-03-07 21:54:27.330 ,1,0,0.,12.0,0.,12.0,0.,12.0,0.,12.0
1979-03-07 21:54:39.330 ,1,0,0.,12.0,0.,12.0,0.,12.0,0.,12.0
1979-03-07 21:54:51.330 ,2,0,0.,12.0,0.,12.0,0.,12.0,0.,12.0
1979-03-07 21:55:03.330 ,2,0,0.,12.0,0.,12.0,0.,12.0,0.,12.0
1979-03-07 21:55:15.330 ,3,0,0.,12.0,0.,12.0,0.,12.0,0.,12.0
1979-03-07 21:55:27.330 ,3,0,0.,12.0,0.,12.0,0.,12.0,0.,12.0
1979-03-07 21:55:39.330 ,4,0,0.,12.0,0.,12.0,0.,12.0,0.,12.0
1979-03-07 21:55:51.330 ,4,0,0.,12.0,0.,12.0,0.,12.0,0.,12.0
1979-03-07 21:56:03.330 ,5,0,0.,12.0,0.,12.0,0.,12.0,0.,12.0
1979-03-07 21:56:15.330 ,5,0,0.,12.0,0.,12.0,0.,12.0,0.,12.0
1979-03-07 21:56:27.330 ,6,0,0.,12.0,0.,12.0,0.,12.0,0.,12.0
1979-03-07 21:56:39.330 ,6,0,0.,12.0,0.,12.0,0.,12.0,0.,12.0
1979-03-07 21:56:51.330 ,7,0,0.,12.0,0.,12.0,0.,12.0,0.,12.0
1979-03-07 21:57:03.330 ,7,0,0.,12.0,0.,12.0,0.,12.0,0.,12.0
1979-03-07 21:57:15.330 ,7,0,0.,12.0,0.,12.0,0.,12.0,0.,12.0
1979-03-07 21:57:27.330 ,7,0,0.,12.0,0.,12.0,0.,12.0,0.,12.0
1979-03-07 21:57:39.330 ,6,0,0.,12.0,0.,12.0,0.,12.0,0.,12.0
1979-03-07 21:57:51.330 ,6,0,0.,12.0,0.,12.0,0.,12.0,0.,12.0
1979-03-07 21:58:03.330 ,5,0,0.,12.0,0.,12.0,0.,12.0,0.,12.0
1979-03-07 21:58:15.330 ,5,0,0.,12.0,0.,12.0,0.,12.0,0.,12.0
1979-03-07 21:58:27.330 ,4,0,0.,12.0,0.,12.0,0.,12.0,0.,12.0
1979-03-07 21:58:39.330 ,4,0,0.,12.0,0.,12.0,0.,12.0,0.,12.0
1979-03-07 21:58:51.330 ,3,0,0.,12.0,0.,12.0,0.,12.0,0.,12.0
1979-03-07 21:59:03.330 ,3,0,0.,12.0,0.,12.0,0.,12.0,0.,12.0
1979-03-07 21:59:15.330 ,2,0,0.,12.0,0.,12.0,0.,12.0,0.,12.0
1979-03-07 21:59:27.330 ,2,0,0.,12.0,0.,12.0,0.,12.0,0.,12.0
1979-03-07 21:59:39.330 ,1,0,0.,12.0,0.,12.0,0.,12.0,0.,12.0
1979-03-07 21:59:51.330 ,1,0,0.,12.0,0.,12.0,0.,12.0,0.,12.0
1979-03-07 22:00:03.330 ,0,0,0.,12.0,0.,12.0,0.,12.0,0.,12.0
1979-03-07 22:00:15.330 ,0,0,0.,12.0,0.,12.0,0.,12.0,0.,12.0
1979-03-07 22:00:27.330 ,0,0,0.,12.0,0.,12.0,0.,12.0,0.,12.0
1979-03-07 22:00:39.330 ,0,0,0.,12.0,0.,12.0,0.,12.0,0.,12.0
1979-03-07 22:00:51.330 ,1,0,0.,12.0,0.,12.0,0.,12.0,0.,12.0
1979-03-07 22:01:03.330 ,1,0,0.,12.0,0.,12.0,0.,12.0,0.,12.0
1979-03-07 22:01:15.330 ,2,0,0.,12.0,0.,12.0,0.,12.0,0.,12.0
1979-03-07 22:01:27.330 ,2,0,0.,12.0,0.,12.0,0.,12.0,0.,12.0
1979-03-07 22:01:39.330 ,3,0,0.,12.0,0.,12.0,0.,12.0,0.,12.0
1979-03-07 22:01:51.330 ,3,0,0.,12.0,0.,12.0,0.,12.0,0.,12.0
1979-03-07 22:02:03.330 ,4,0,0.,12.0,0.,12.0,0.,12.0,0.,12.0
1979-03-07 22:02:15.330 ,4,0,0.,12.0,0.,12.0,0.,12.0,0.,12.0
1979-03-07 22:02:27.330 ,5,0,0.,12.0,0.,12.0,0.,12.0,0.,12.0
1979-03-07 22:02:39.330 ,5,0,0.,12.0,0.,12.0,0.,12.0,0.,12.0
1979-03-07 22:02:51.330 ,6,0,1.,12.0,0.,12.0,0.,12.0,0.,12.0
1979-03-07 22:03:03.330 ,6,0,0.,12.0,0.,12.0,0.,12.0,0.,12.0
1979-03-07 22:03:15.330 ,7,0,0.,12.0,0.,12.0,0.,12.0,0.,12.0
1979-03-07 22:03:27.330 ,7,0,0.,12.0,0.,12.0,0.,12.0,0.,12.0
1979-03-07 22:03:39.330 ,7,0,0.,12.0,0.,12.0,0.,12.0,0.,12.0
1979-03-07 22:03:51.330 ,7,0,0.,12.0,0.,12.0,0.,12.0,0.,12.0
1979-03-07 22:04:03.330 ,6,0,0.,12.0,0.,12.0,0.,12.0,0.,12.0
1979-03-07 22:04:15.330 ,6,0,1.,12.0,0.,12.0,0.,12.0,0.,12.0
1979-03-07 22:04:27.330 ,5,0,0.,12.0,0.,12.0,0.,12.0,0.,12.0
1979-03-07 22:04:39.330 ,5,0,0.,12.0,0.,12.0,0.,12.0,0.,12.0
1979-03-07 22:04:51.330 ,0,0,0.,12.0,0.,12.0,0.,12.0,0.,12.0
1979-03-07 22:05:03.330 ,0,0,0.,12.0,0.,12.0,0.,12.0,0.,12.0
1979-03-07 22:05:15.330 ,0,0,0.,12.0,0.,12.0,0.,12.0,0.,12.0
1979-03-07 22:05:27.330 ,0,0,0.,12.0,0.,12.0,0.,12.0,0.,12.0
1979-03-07 22:05:39.330 ,2,0,0.,12.0,0.,12.0,0.,12.0,0.,12.0
1979-03-07 22:05:51.330 ,2,0,0.,12.0,0.,12.0,0.,12.0,0.,12.0
1979-03-07 22:06:03.330 ,1,0,0.,12.0,0.,12.0,0.,12.0,0.,12.0
1979-03-07 22:06:15.330 ,1,0,0.,12.0,0.,12.0,0.,12.0,0.,12.0
1979-03-07 22:06:27.330 ,0,0,0.,12.0,0.,12.0,0.,12.0,0.,12.0
1979-03-07 22:06:39.330 ,0,0,0.,12.0,0.,12.0,0.,12.0,0.,12.0
1979-03-07 22:06:51.330 ,0,0,0.,12.0,0.,12.0,0.,12.0,0.,12.0
1979-03-07 22:07:03.330 ,0,0,0.,12.0,0.,12.0,0.,12.0,0.,12.0
1979-03-07 22:07:15.330 ,1,0,0.,12.0,0.,12.0,0.,12.0,0.,12.0
1979-03-07 22:07:27.330 ,1,0,0.,12.0,0.,12.0,0.,12.0,0.,12.0
1979-03-07 22:07:39.330 ,2,0,0.,12.0,0.,12.0,0.,12.0,0.,12.0
1979-03-07 22:07:51.330 ,2,0,0.,12.0,0.,12.0,0.,12.0,0.,12.0
1979-03-07 22:08:03.330 ,3,0,1.,12.0,0.,12.0,0.,12.0,0.,12.0
1979-03-07 22:08:15.330 ,3,0,0.,12.0,0.,12.0,0.,12.0,0.,12.0
1979-03-07 22:08:27.330 ,4,0,1.,12.0,0.,12.0,0.,12.0,0.,12.0
1979-03-07 22:08:39.330 ,4,0,0.,12.0,0.,12.0,0.,12.0,0.,12.0
1979-03-07 22:08:51.330 ,5,0,1.,12.0,0.,12.0,0.,12.0,0.,12.0
1979-03-07 22:09:03.330 ,5,0,0.,12.0,0.,12.0,0.,12.0,0.,12.0
1979-03-07 22:09:15.330 ,6,0,0.,12.0,0.,12.0,0.,12.0,0.,12.0
1979-03-07 22:09:27.330 ,6,0,0.,12.0,0.,12.0,0.,12.0,0.,12.0
1979-03-07 22:09:39.330 ,7,0,0.,12.0,0.,12.0,0.,12.0,0.,12.0
1979-03-07 22:09:51.330 ,7,0,0.,12.0,0.,12.0,0.,12.0,0.,12.0
1979-03-07 22:10:03.330 ,7,0,0.,12.0,0.,12.0,0.,12.0,0.,12.0
1979-03-07 22:10:15.330 ,7,0,0.,12.0,0.,12.0,0.,12.0,0.,12.0
1979-03-07 22:10:27.330 ,6,0,0.,12.0,0.,12.0,0.,12.0,0.,12.0
1979-03-07 22:10:39.330 ,6,0,0.,12.0,0.,12.0,0.,12.0,0.,12.0
1979-03-07 22:10:51.330 ,5,0,0.,12.0,0.,12.0,0.,12.0,0.,12.0
1979-03-07 22:11:03.330 ,5,0,0.,12.0,0.,12.0,0.,12.0,0.,12.0
1979-03-07 22:11:15.330 ,4,0,3.,12.0,0.,12.0,0.,12.0,0.,12.0
1979-03-07 22:11:27.330 ,4,0,0.,12.0,0.,12.0,0.,12.0,0.,12.0
1979-03-07 22:11:39.330 ,3,0,0.,12.0,0.,12.0,0.,12.0,0.,12.0
1979-03-07 22:11:51.330 ,3,0,0.,12.0,0.,12.0,0.,12.0,0.,12.0
1979-03-07 22:12:03.330 ,2,0,0.,12.0,0.,12.0,0.,12.0,0.,12.0
1979-03-07 22:12:15.330 ,2,0,0.,12.0,0.,12.0,0.,12.0,0.,12.0
1979-03-07 22:12:27.330 ,1,0,0.,12.0,0.,12.0,0.,12.0,0.,12.0
1979-03-07 22:12:39.330 ,1,0,0.,12.0,0.,12.0,0.,12.0,0.,12.0
1979-03-07 22:12:51.330 ,0,0,0.,12.0,0.,12.0,0.,12.0,0.,12.0
1979-03-07 22:13:03.330 ,0,0,0.,12.0,0.,12.0,0.,12.0,0.,12.0
1979-03-07 22:13:15.330 ,0,0,0.,12.0,0.,12.0,0.,12.0,0.,12.0
1979-03-07 22:13:27.330 ,0,0,0.,12.0,0.,12.0,0.,12.0,0.,12.0
1979-03-07 22:13:39.330 ,1,0,0.,12.0,0.,12.0,0.,12.0,0.,12.0
1979-03-07 22:13:51.330 ,1,0,0.,12.0,0.,12.0,0.,12.0,0.,12.0
1979-03-07 22:14:03.330 ,2,0,0.,12.0,0.,12.0,0.,12.0,0.,12.0
1979-03-07 22:14:15.330 ,2,0,2.,12.0,0.,12.0,0.,12.0,0.,12.0
1979-03-07 22:14:27.330 ,3,0,0.,12.0,0.,12.0,0.,12.0,0.,12.0
1979-03-07 22:14:39.330 ,3,0,0.,12.0,0.,12.0,0.,12.0,0.,12.0
1979-03-07 22:14:51.330 ,4,0,0.,12.0,0.,12.0,0.,12.0,0.,12.0
1979-03-07 22:15:03.330 ,4,0,0.,12.0,0.,12.0,0.,12.0,0.,12.0
1979-03-07 22:15:15.330 ,5,0,0.,12.0,0.,12.0,0.,12.0,0.,12.0
1979-03-07 22:15:27.330 ,5,0,0.,12.0,0.,12.0,0.,12.0,0.,12.0
1979-03-07 22:15:39.330 ,6,0,0.,12.0,0.,12.0,0.,12.0,0.,12.0
1979-03-07 22:15:51.330 ,6,0,0.,12.0,0.,12.0,0.,12.0,0.,12.0
1979-03-07 22:16:03.330 ,7,0,0.,12.0,0.,12.0,0.,12.0,0.,12.0
1979-03-07 22:16:15.330 ,7,0,0.,12.0,0.,12.0,0.,12.0,0.,12.0
1979-03-07 22:16:27.330 ,7,0,0.,12.0,0.,12.0,0.,12.0,0.,12.0
1979-03-07 22:16:39.330 ,7,0,0.,12.0,0.,12.0,0.,12.0,0.,12.0
1979-03-07 22:16:51.330 ,6,0,0.,12.0,0.,12.0,0.,12.0,0.,12.0
1979-03-07 22:17:03.330 ,6,0,0.,12.0,0.,12.0,0.,12.0,0.,12.0
1979-03-07 22:17:15.330 ,5,0,0.,12.0,0.,12.0,0.,12.0,0.,12.0
1979-03-07 22:17:27.330 ,5,0,0.,12.0,0.,12.0,0.,12.0,0.,12.0